Weather History for Columbus, GA

Change the Weather History Date:

Wednesday, June 26, 2013

  Actual Average Record
Temperature  
Mean Temperature 83 °F 82 °F  
Max Temperature 92 °F 92 °F 99 °F (1950)
Min Temperature 73 °F 72 °F 60 °F (1974)
Degree Days  
Heating Degree Days 0 0  
Month to date heating degree days 0 0  
Since 1 June heating degree days 0 0  
Since 1 July heating degree days 1800 2120  
Cooling Degree Days 18 17  
Month to date cooling degree days 397 378  
Year to date cooling degree days 760 736  
Since 1 June cooling degree days 397 378  
Growing Degree Days 32 (Base 50)    
Moisture  
Dew Point 71 °F    
Average Humidity 71    
Maximum Humidity 94    
Minimum Humidity 47    
Precipitation  
Precipitation 0.00 in 0.14 in 1.60 in (1983)
Month to date precipitation 6.37 3.19  
Year to date precipitation 31.98 23.68  
Sea Level Pressure  
Sea Level Pressure 30.02 in    
Wind  
Wind Speed 4 mph (WSW)    
Max Wind Speed 13 mph    
Max Gust Speed 17 mph    
Visibility 10 miles    
Events      
T = Trace of Precipitation, MM = Missing Value Source: NWS Daily Summary

Daily Weather History Graph

Daily Weather History Graph

Search for Another Location

Airport:

Trip Planner

Search our weather history database for the weather conditions in past years. The results will help you decide how hot, cold, wet, or windy it might be!

Date:

Astronomy

Jun. 26, 2013 Rise Set
Actual Time 6:34 AM EDT 8:51 PM EDT
Civil Twilight 6:05 AM EDT 9:19 PM EDT
Nautical Twilight 5:30 AM EDT 9:54 PM EDT
Astronomical Twilight 4:53 AM EDT 10:32 PM EDT
Moon 11:28 PM EDT (6/26) 10:12 AM EDT (6/26)
Length of Visible Light 15h 13m
Length of Day
14h 16m
Waning Gibbous, 85% of the Moon is Illuminated
Jun 26
Waning Gibbous
Jun 30
Last Quarter
Jul 8
New
Jul 15
First Quarter
Jul 22
Full

Hourly Weather History & Observations

Time (EDT) Temp. Heat Index Dew Point Humidity Pressure Visibility Wind Dir Wind Speed Gust Speed Precip Events Conditions
12:51 AM 75.9 °F - 73.0 °F 91% 30.04 in 10.0 mi Calm Calm - N/A   Clear
1:51 AM 75.9 °F - 71.1 °F 85% 30.04 in 10.0 mi South 3.5 mph - N/A   Clear
2:51 AM 73.9 °F - 71.1 °F 91% 30.02 in 10.0 mi SSE 3.5 mph - N/A   Clear
3:51 AM 73.0 °F - 70.0 °F 90% 30.03 in 10.0 mi Calm Calm - N/A   Clear
4:51 AM 73.0 °F - 70.0 °F 90% 30.03 in 10.0 mi Calm Calm - N/A   Clear
5:51 AM 73.0 °F - 70.0 °F 90% 30.04 in 10.0 mi Calm Calm - N/A   Clear
6:51 AM 73.0 °F - 69.1 °F 87% 30.07 in 10.0 mi Calm Calm - N/A   Clear
7:51 AM 75.0 °F - 70.0 °F 84% 30.07 in 10.0 mi Calm Calm - N/A   Clear
8:51 AM 78.1 °F - 72.0 °F 81% 30.09 in 10.0 mi Calm Calm - N/A   Clear
9:51 AM 82.0 °F 86.7 °F 72.0 °F 71% 30.09 in 10.0 mi West 4.6 mph - N/A   Scattered Clouds
10:20 AM 82.4 °F 87.2 °F 71.6 °F 70% 30.10 in 10.0 mi Variable 4.6 mph - N/A   Scattered Clouds
10:51 AM 84.9 °F 90.7 °F 72.0 °F 65% 30.08 in 10.0 mi West 5.8 mph - N/A   Mostly Cloudy
11:51 AM 86.0 °F 90.7 °F 70.0 °F 59% 30.06 in 10.0 mi West 8.1 mph - N/A   Scattered Clouds
12:51 PM 88.0 °F 91.4 °F 68.0 °F 51% 30.05 in 10.0 mi NW 8.1 mph - N/A   Mostly Cloudy
1:51 PM 90.0 °F 94.5 °F 69.1 °F 50% 30.04 in 10.0 mi Variable 4.6 mph - N/A   Mostly Cloudy
2:51 PM 91.0 °F 95.6 °F 69.1 °F 48% 30.01 in 10.0 mi SSW 9.2 mph - N/A   Mostly Cloudy
3:51 PM 91.0 °F 95.2 °F 68.0 °F 47% 29.99 in 10.0 mi Variable 5.8 mph - N/A   Scattered Clouds
4:51 PM 90.0 °F 93.6 °F 68.0 °F 48% 29.98 in 10.0 mi WSW 8.1 mph - N/A   Scattered Clouds
5:51 PM 89.1 °F 93.7 °F 69.1 °F 52% 29.96 in 10.0 mi West 5.8 mph - N/A   Clear
6:51 PM 88.0 °F 92.1 °F 69.1 °F 53% 29.96 in 10.0 mi West 5.8 mph - N/A   Clear
7:51 PM 88.0 °F 92.9 °F 70.0 °F 55% 29.96 in 10.0 mi West 4.6 mph - N/A   Clear
8:51 PM 84.9 °F 90.7 °F 72.0 °F 65% 29.96 in 10.0 mi WSW 3.5 mph - N/A   Clear
9:51 PM 84.0 °F 90.2 °F 73.0 °F 69% 29.97 in 10.0 mi Calm Calm - N/A   Clear
10:51 PM 82.9 °F 88.8 °F 73.0 °F 72% 29.98 in 10.0 mi SW 4.6 mph - N/A   Clear
11:51 PM 81.0 °F 85.8 °F 73.0 °F 77% 29.97 in 10.0 mi SW 4.6 mph - N/A   Clear